Location: Helion Bumpstead
(52.0500°N, 0.4000°E)
Time: 14:10:40
(UTC+00:00)

Cosmos 1725 Rocket - Visible Passes

Search period start: 14 February 2026 00:00
Search period end: 24 February 2026 00:00
Orbit: 961 x 990 km, 82.9° (Epoch: 13 February)

Date Brightness Start Highest point End Pass type
(mag) Time Alt. Az. Time Alt. Az. Time Alt. Az.
14 Feb 6.0 05:30:30 10° SE 05:35:42 30° E 05:40:56 10° NNE visible
14 Feb 5.0 18:04:12 10° NNW 18:10:15 53° W 18:16:18 10° SSW visible
15 Feb 5.1 05:54:53 10° SSE 06:00:45 48° E 06:06:40 10° NNE visible
15 Feb 5.9 18:29:52 10° NNW 18:35:19 33° W 18:40:47 10° SW visible
16 Feb 6.9 04:38:07 10° ESE 04:41:36 16° ENE 04:45:05 10° NE visible
16 Feb 4.2 06:19:47 10° S 06:25:57 79° E 06:32:10 10° NNE visible
16 Feb 6.7 18:55:53 10° NW 19:00:15 20° W 19:04:37 10° WSW visible
17 Feb 6.2 05:01:29 10° SE 05:06:26 26° E 05:11:24 10° NNE visible
17 Feb 7.2 19:22:53 10° NW 19:25:00 12° WNW 19:27:07 10° W visible
18 Feb 5.3 05:25:42 10° SSE 05:31:26 42° E 05:37:13 10° NNE visible
18 Feb 5.8 18:00:23 10° NNW 18:06:03 37° W 18:11:43 10° SSW visible
19 Feb 7.0 04:09:31 10° ESE 04:12:24 14° ENE 04:15:15 10° NE visible
19 Feb 4.4 05:50:29 10° S 05:56:36 69° E 06:02:46 10° NNE visible
19 Feb 6.6 18:26:16 10° NNW 18:31:00 23° W 18:35:45 10° SW visible
20 Feb 6.4 04:32:33 10° SE 04:37:11 23° E 04:41:51 10° NNE visible
20 Feb 4.0 06:15:45 10° SSW 06:21:54 75° W 06:28:10 10° N visible
20 Feb 7.0 18:52:50 10° NW 18:55:48 14° WNW 18:58:47 10° WSW visible
21 Feb 5.5 04:56:34 10° SSE 05:02:08 37° E 05:07:45 10° NNE visible
22 Feb 7.0 03:41:11 10° E 03:43:12 12° ENE 03:45:13 10° NE visible
22 Feb 4.6 05:21:12 10° S 05:27:15 61° E 05:33:22 10° NNE visible
22 Feb 6.5 17:56:43 10° NNW 18:01:46 26° W 18:06:49 10° SW visible
23 Feb 6.5 04:03:39 10° ESE 04:07:56 20° E 04:12:15 10° NE visible
23 Feb 4.0 05:46:20 10° S 05:52:32 84° W 05:58:48 10° N visible
23 Feb 6.9 18:23:00 10° NW 18:26:36 16° WNW 18:30:13 10° WSW visible
